Weather History for LHUD - March, 2013

Change the Weather History Date:

Monday, March 11, 2013

  Actual Average (LRAR) Record (LRAR)
Temperature  
Mean Temperature 50 °F -  
Max Temperature 57 °F 56 °F 62 °F (2001)
Min Temperature 42 °F 37 °F 6 °F (2005)
Degree Days  
Heating Degree Days 16    
Moisture  
Dew Point 45 °F    
Average Humidity 83    
Maximum Humidity 100    
Minimum Humidity 59    
Precipitation  
Precipitation 0.00 in 0.04 in - ()
Sea Level Pressure  
Sea Level Pressure 29.50 in    
Wind  
Wind Speed 5 mph ()    
Max Wind Speed 9 mph    
Max Gust Speed -    
Visibility 4.7 miles    
Events Fog    
Averages and records for this station are not official NWS values.
T = Trace of Precipitation, MM = Missing Value Source: Averaged Metar Reports

Daily Weather History Graph

Daily Weather History Graph

Search for Another Location

Airport or City:

Trip Planner

Search our weather history database for the weather conditions in past years. The results will help you decide how hot, cold, wet, or windy it might be!

Date:

Astronomy

Mar. 11, 2013 Rise Set
Actual Time 6:00 AM CET 5:39 PM CET
Civil Twilight 5:30 AM CET 6:09 PM CET
Nautical Twilight 4:55 AM CET 6:44 PM CET
Astronomical Twilight 4:20 AM CET 7:20 PM CET
Moon 5:23 AM CET (3/11) 5:34 PM CET (3/11)
Length of Visible Light 12h 39m
Length of Day
11h 39m
Waning Crescent, 0% of the Moon is Illuminated
Mar 11
Waning Crescent
Mar 11
New
Mar 19
First Quarter
Mar 27
Full
Apr 3
Last Quarter

Hourly Weather History & Observations

Time (CET) Temp. Windchill Dew Point Humidity Pressure Visibility Wind Dir Wind Speed Gust Speed Precip Events Conditions
12:45 AM 44.6 °F 40.7 °F 44.6 °F 100% 29.50 in 3.7 mi SSW 6.9 mph - N/A   Partly Cloudy
1:00 AM 44 °F - 44 °F 100% 29.51 in 4 mi SSW 6.7 mph - -   Partly Cloudy
1:45 AM 44.6 °F 42.2 °F 44.6 °F 100% 29.50 in 2.8 mi West 4.6 mph - N/A   Partly Cloudy
2:45 AM 46.4 °F 42.4 °F 46.4 °F 100% 29.47 in 2.5 mi West 8.1 mph - N/A   Partly Cloudy
3:45 AM 48.2 °F - 46.4 °F 93% 29.47 in 2.5 mi West 8.1 mph - N/A   Partly Cloudy
4:45 AM 46.4 °F 44.3 °F 46.4 °F 100% 29.47 in 2.5 mi SSW 4.6 mph - N/A   Mostly Cloudy
5:15 AM 46.4 °F 44.3 °F 46.4 °F 100% 29.47 in 2.5 mi SW 4.6 mph - N/A   Mostly Cloudy
5:45 AM 44.6 °F 43.1 °F 44.6 °F 100% 29.47 in 1.6 mi WSW 3.5 mph - N/A   Mostly Cloudy
6:03 AM 44.6 °F 43.1 °F 44.6 °F 100% 29.50 in 0.4 mi West 3.5 mph - N/A Fog Fog
6:15 AM 44.6 °F 42.2 °F 42.8 °F 93% 29.47 in 0.1 mi West 4.6 mph - N/A Fog Fog
6:45 AM 44.6 °F 41.4 °F 42.8 °F 93% 29.50 in 0.1 mi West 5.8 mph - N/A Fog Fog
7:15 AM 44.6 °F 43.1 °F 44.6 °F 100% 29.50 in 0.1 mi SSW 3.5 mph - N/A Fog Fog
7:45 AM 46.4 °F - 44.6 °F 93% 29.50 in 0.4 mi SW 2.3 mph - N/A Fog Fog
8:15 AM 46.4 °F - 46.4 °F 100% 29.50 in 0.6 mi SSW 2.3 mph - N/A Fog Fog
9:15 AM 50.0 °F - 50.0 °F 100% 29.50 in 2.8 mi West 2.3 mph - N/A   Mostly Cloudy
9:45 AM 51.8 °F - 46.4 °F 82% 29.50 in 3.7 mi WNW 4.6 mph - N/A   Mostly Cloudy
10:15 AM 51.8 °F - 46.4 °F 82% 29.50 in 5.0 mi WNW 5.8 mph - N/A   Mostly Cloudy
10:45 AM 53.6 °F - 46.4 °F 77% 29.50 in 6.2 mi NW 6.9 mph - N/A   Mostly Cloudy
11:15 AM 53.6 °F - 48.2 °F 82% 29.50 in 6.2 mi NNW 9.2 mph - N/A   Scattered Clouds
12:15 PM 53.6 °F - 46.4 °F 77% 29.50 in 6.2 mi NW 6.9 mph - N/A   Scattered Clouds
1:00 PM 56 °F - 46 °F 60% 29.50 in 16 mi NNW 6.7 mph - -   Partly Cloudy
1:15 PM 55.4 °F - 46.4 °F 72% 29.50 in 6.2 mi North 6.9 mph - N/A   Mostly Cloudy
1:45 PM 57.2 °F - 44.6 °F 63% 29.50 in 6.2 mi North 6.9 mph - N/A   Mostly Cloudy
2:15 PM 57.2 °F - 42.8 °F 59% 29.50 in 6.2 mi North 6.9 mph - N/A   Mostly Cloudy
2:45 PM 57.2 °F - 44.6 °F 63% 29.50 in 6.2 mi North 6.9 mph - N/A   Mostly Cloudy
3:15 PM 57.2 °F - 42.8 °F 59% 29.50 in 6.2 mi NW 5.8 mph - N/A   Mostly Cloudy
3:45 PM 57.2 °F - 44.6 °F 63% 29.50 in 6.2 mi North 4.6 mph - N/A   Mostly Cloudy
4:15 PM 57.2 °F - 42.8 °F 59% 29.50 in 6.2 mi North 2.3 mph - N/A   Mostly Cloudy
4:45 PM 55.4 °F - 44.6 °F 67% 29.50 in 6.2 mi NW 3.5 mph - N/A   Mostly Cloudy
5:15 PM 55.4 °F - 46.4 °F 72% 29.50 in 6.2 mi WNW 5.8 mph - N/A   Mostly Cloudy
5:45 PM 53.6 °F - 44.6 °F 72% 29.50 in 6.2 mi WNW 5.8 mph - N/A   Mostly Cloudy
6:15 PM 51.8 °F - 44.6 °F 76% 29.50 in 6.2 mi NW 4.6 mph - N/A   Mostly Cloudy
6:45 PM 50.0 °F - 44.6 °F 82% 29.53 in 6.2 mi WNW 2.3 mph - N/A   Mostly Cloudy
7:00 PM 50 °F - 44 °F 73% 29.52 in 9 mi WNW 2.2 mph - -   Partly Cloudy
7:15 PM 48.2 °F - 42.8 °F 82% 29.53 in 6.2 mi West 3.5 mph - N/A   Scattered Clouds
7:45 PM 46.4 °F - 42.8 °F 87% 29.53 in 6.2 mi WSW 1.2 mph - N/A   Scattered Clouds
8:15 PM 48.2 °F - 41.0 °F 76% 29.53 in 6.2 mi West 4.6 mph - N/A   Scattered Clouds
8:45 PM 48.2 °F - 42.8 °F 82% 29.53 in 6.2 mi WSW 4.6 mph - N/A   Partly Cloudy
9:45 PM 46.4 °F 43.5 °F 42.8 °F 87% 29.56 in - WNW 5.8 mph - N/A   Clear
10:45 PM 42.8 °F 41.1 °F 41.0 °F 93% 29.56 in - NNW 3.5 mph - N/A   Clear
11:45 PM 42.8 °F 40.1 °F 39.2 °F 87% 29.56 in - NNW 4.6 mph - N/A   Clear